When you browse on this site, cookies collect data to enhance your experience and personalize the content and advertising you see.
Visit our Privacy Policy to learn more. By continuing to use the site, you agree to this use of cookies and data.
  • în România
  • Lista ţărilor
  • Pe 7 zile
  • Temperatura apei
  • Hartă satelitară
  • Meteo pe hartă
  • Widget-uri
  • user-avatar
    Intrare

    Meteo pe oră la Turksad

    Astăzi, 25 Martie, Luni

    Timp Temperatura Precipitaţii Vânt Presiune Umiditate
    00:00 +1°C° 0 mm 5 m/s 759 mmHg 71%
    01:00 +1°C° 0 mm 5 m/s 759 mmHg 72%
    02:00 0°C° 0 mm 5 m/s 759 mmHg 74%
    03:00 0°C° 0 mm 5 m/s 759 mmHg 75%
    04:00 0°C° 0 mm 5 m/s 759 mmHg 76%
    05:00 -1°C° 0 mm 5 m/s 759 mmHg 77%
    06:00 -1°C° 0 mm 5 m/s 760 mmHg 78%
    07:00 +1°C° 0 mm 5 m/s 760 mmHg 72%
    08:00 +2°C° 0 mm 5 m/s 760 mmHg 66%
    09:00 +4°C° 0 mm 6 m/s 760 mmHg 60%
    10:00 +6°C° 0 mm 5 m/s 760 mmHg 56%
    11:00 +7°C° 0 mm 5 m/s 760 mmHg 51%
    12:00 +8°C° 0 mm 5 m/s 760 mmHg 46%
    13:00 +10°C° 0 mm 4 m/s 759 mmHg 45%
    14:00 +10°C° 0 mm 4 m/s 759 mmHg 44%
    15:00 +11°C° 0 mm 4 m/s 759 mmHg 42%
    16:00 +11°C° 0 mm 3 m/s 759 mmHg 45%
    17:00 +10°C° 0 mm 2 m/s 759 mmHg 49%
    18:00 +11°C° 0 mm 1 m/s 759 mmHg 52%
    19:00 +10°C° 0 mm 1 m/s 759 mmHg 53%
    20:00 +10°C° 0 mm 1 m/s 760 mmHg 55%
    21:00 +9°C° 0 mm 1 m/s 760 mmHg 56%
    22:00 +8°C° 0 mm 1 m/s 760 mmHg 56%
    23:00 +8°C° 0 mm 1 m/s 760 mmHg 56%

    Mâine, 26 Martie, Marţi

    Timp Temperatura Precipitaţii Vânt Presiune Umiditate
    00:00 +6°C° 0 mm 2 m/s 760 mmHg 57%
    01:00 +6°C° 0 mm 2 m/s 760 mmHg 58%
    02:00 +4°C° 0 mm 3 m/s 760 mmHg 60%
    03:00 +4°C° 0 mm 3 m/s 760 mmHg 62%
    04:00 +3°C° 0 mm 3 m/s 760 mmHg 64%
    05:00 +3°C° 0 mm 3 m/s 760 mmHg 66%
    06:00 +3°C° 0 mm 3 m/s 760 mmHg 67%
    07:00 +4°C° 0 mm 4 m/s 760 mmHg 62%
    08:00 +6°C° 0 mm 5 m/s 760 mmHg 56%
    09:00 +8°C° 0 mm 6 m/s 760 mmHg 50%
    10:00 +9°C° 0 mm 6 m/s 760 mmHg 48%
    11:00 +10°C° 0 mm 6 m/s 759 mmHg 46%
    12:00 +11°C° 0 mm 7 m/s 759 mmHg 44%
    13:00 +11°C° 0 mm 7 m/s 759 mmHg 44%
    14:00 +11°C° 0 mm 7 m/s 758 mmHg 44%
    15:00 +12°C° 0 mm 7 m/s 758 mmHg 44%
    16:00 +11°C° 0 mm 7 m/s 757 mmHg 47%
    17:00 +9°C° 0 mm 7 m/s 757 mmHg 50%
    18:00 +8°C° 0 mm 7 m/s 757 mmHg 53%
    19:00 +7°C° 0 mm 6 m/s 757 mmHg 57%
    20:00 +5°C° 0 mm 6 m/s 757 mmHg 60%
    21:00 +5°C° 0 mm 5 m/s 757 mmHg 64%
    22:00 +3°C° 0 mm 5 m/s 757 mmHg 67%
    23:00 +4°C° 0 mm 4 m/s 757 mmHg 70%

    Poimâine, 27 Martie, Miercuri

    Timp Temperatura Precipitaţii Vânt Presiune Umiditate
    00:00 +3°C° 0 mm 4 m/s 757 mmHg 74%
    01:00 +3°C° 0 mm 3 m/s 757 mmHg 76%
    02:00 +2°C° 0 mm 3 m/s 756 mmHg 77%
    03:00 +2°C° 0 mm 3 m/s 756 mmHg 79%
    04:00 +2°C° 0 mm 3 m/s 756 mmHg 81%
    05:00 +3°C° 0 mm 2 m/s 756 mmHg 82%
    06:00 +2°C° 0 mm 2 m/s 756 mmHg 84%
    07:00 +4°C° 0 mm 2 m/s 756 mmHg 77%
    08:00 +6°C° 0 mm 2 m/s 756 mmHg 71%
    09:00 +7°C° 0 mm 2 m/s 756 mmHg 65%
    10:00 +10°C° 0 mm 1 m/s 756 mmHg 61%
    11:00 +11°C° 0 mm 1 m/s 756 mmHg 58%
    12:00 +12°C° 0 mm 1 m/s 756 mmHg 54%
    13:00 +13°C° 0 mm 1 m/s 756 mmHg 51%
    14:00 +14°C° 0 mm 1 m/s 756 mmHg 49%
    15:00 +15°C° 0 mm 2 m/s 756 mmHg 47%
    16:00 +14°C° 0 mm 2 m/s 756 mmHg 49%
    17:00 +14°C° 0 mm 2 m/s 756 mmHg 52%
    18:00 +13°C° 0 mm 2 m/s 756 mmHg 55%
    19:00 +12°C° 0 mm 1 m/s 757 mmHg 58%
    20:00 +11°C° 0 mm 1 m/s 757 mmHg 62%
    21:00 +9°C° 0 mm 0 m/s 758 mmHg 65%
    22:00 +10°C° 0 mm 1 m/s 758 mmHg 65%
    23:00 +9°C° 0 mm 3 m/s 758 mmHg 65%

    28 Martie, Joi

    Timp Temperatura Precipitaţii Vânt Presiune Umiditate
    00:00 +8°C° 0 mm 4 m/s 758 mmHg 65%
    01:00 +8°C° 0 mm 4 m/s 758 mmHg 69%
    02:00 +7°C° 0 mm 5 m/s 758 mmHg 74%
    03:00 +7°C° 0 mm 6 m/s 758 mmHg 79%
    04:00 +7°C° 0 mm 5 m/s 759 mmHg 74%
    05:00 +6°C° 0 mm 5 m/s 759 mmHg 69%
    06:00 +6°C° 0 mm 5 m/s 760 mmHg 63%
    07:00 +6°C° 0 mm 5 m/s 760 mmHg 57%
    08:00 +7°C° 0 mm 6 m/s 761 mmHg 51%
    09:00 +8°C° 0 mm 6 m/s 761 mmHg 45%
    10:00 +8°C° 0 mm 7 m/s 761 mmHg 44%
    11:00 +9°C° 0 mm 8 m/s 761 mmHg 42%
    12:00 +10°C° 0 mm 8 m/s 761 mmHg 41%
    13:00 +10°C° 0 mm 8 m/s 761 mmHg 39%
    14:00 +11°C° 0 mm 8 m/s 760 mmHg 38%
    15:00 +11°C° 0 mm 8 m/s 760 mmHg 37%
    16:00 +10°C° 0 mm 7 m/s 761 mmHg 40%
    17:00 +9°C° 0 mm 6 m/s 761 mmHg 44%
    18:00 +8°C° 0 mm 5 m/s 761 mmHg 47%
    19:00 +7°C° 0 mm 5 m/s 762 mmHg 50%
    20:00 +5°C° 0 mm 6 m/s 762 mmHg 53%
    21:00 +4°C° 0 mm 6 m/s 763 mmHg 56%
    22:00 +4°C° 0 mm 6 m/s 763 mmHg 57%
    23:00 +3°C° 0 mm 5 m/s 763 mmHg 58%

    29 Martie, Vineri

    Timp Temperatura Precipitaţii Vânt Presiune Umiditate
    00:00 +3°C° 0 mm 5 m/s 763 mmHg 58%
    01:00 +3°C° 0 mm 5 m/s 764 mmHg 57%
    02:00 +3°C° 0 mm 4 m/s 764 mmHg 57%
    03:00 +3°C° 0 mm 4 m/s 764 mmHg 56%
    04:00 +3°C° 0 mm 4 m/s 764 mmHg 56%
    05:00 +3°C° 0 mm 4 m/s 764 mmHg 57%
    06:00 +2°C° 0 mm 3 m/s 765 mmHg 57%
    07:00 +3°C° 0 mm 3 m/s 765 mmHg 54%
    08:00 +3°C° 0 mm 3 m/s 765 mmHg 51%
    09:00 +4°C° 0 mm 3 m/s 766 mmHg 48%
    10:00 +5°C° 0 mm 3 m/s 765 mmHg 44%
    11:00 +5°C° 0 mm 3 m/s 765 mmHg 40%
    12:00 +7°C° 0 mm 3 m/s 765 mmHg 36%
    13:00 +8°C° 0 mm 3 m/s 764 mmHg 35%
    14:00 +8°C° 0 mm 3 m/s 764 mmHg 34%
    15:00 +8°C° 0 mm 3 m/s 763 mmHg 33%
    16:00 +8°C° 0 mm 3 m/s 763 mmHg 36%
    17:00 +8°C° 0 mm 3 m/s 763 mmHg 38%
    18:00 +7°C° 0 mm 3 m/s 763 mmHg 41%
    19:00 +6°C° 0 mm 2 m/s 763 mmHg 44%
    20:00 +6°C° 0 mm 1 m/s 763 mmHg 48%
    21:00 +5°C° 0 mm 1 m/s 763 mmHg 51%
    22:00 +5°C° 0 mm 1 m/s 762 mmHg 50%
    23:00 +4°C° 0 mm 2 m/s 762 mmHg 50%

    30 Martie, Sâmbătă

    Timp Temperatura Precipitaţii Vânt Presiune Umiditate
    00:00 +4°C° 0 mm 2 m/s 762 mmHg 49%
    01:00 +2°C° 0 mm 3 m/s 761 mmHg 55%
    02:00 +2°C° 0 mm 3 m/s 761 mmHg 61%
    03:00 0°C° 0 mm 4 m/s 761 mmHg 66%
    04:00 0°C° 0 mm 4 m/s 760 mmHg 66%
    05:00 0°C° 0 mm 4 m/s 760 mmHg 67%
    06:00 0°C° 0 mm 4 m/s 760 mmHg 67%
    07:00 +1°C° 0.1 mm 4 m/s 760 mmHg 64%
    08:00 +3°C° 0.1 mm 4 m/s 760 mmHg 61%
    09:00 +4°C° 0.1 mm 4 m/s 760 mmHg 58%
    10:00 +4°C° 0.2 mm 4 m/s 760 mmHg 61%
    11:00 +5°C° 0.2 mm 4 m/s 760 mmHg 63%
    12:00 +5°C° 0.2 mm 3 m/s 760 mmHg 65%
    13:00 +7°C° 0.2 mm 3 m/s 760 mmHg 62%
    14:00 +7°C° 0.2 mm 3 m/s 760 mmHg 58%
    15:00 +8°C° 0.2 mm 3 m/s 760 mmHg 55%
    16:00 +7°C° 0.1 mm 3 m/s 760 mmHg 56%
    17:00 +7°C° 0.1 mm 3 m/s 761 mmHg 57%
    18:00 +7°C° 0.1 mm 3 m/s 761 mmHg 58%
    19:00 +5°C° 0 mm 3 m/s 761 mmHg 63%
    20:00 +4°C° 0 mm 3 m/s 762 mmHg 67%
    21:00 +3°C° 0 mm 3 m/s 762 mmHg 72%
    22:00 +2°C° 0 mm 3 m/s 762 mmHg 75%
    23:00 +2°C° 0 mm 3 m/s 762 mmHg 78%
    Arată mai mult